This demonstration page uses our WeatherBlox Daily Observations layout. Learn more.

39.92423, -83.80882

Hourly Observations for July 31, 2017

Temp ( °F °C ) Dew Point ( °F °C ) Humidity (%) Winds ( mph kmh ) Pressure ( in mb ) Visibility ( mi km ) Precip ( " mm )
12:56 am 00:56 Clear 66 18.9 60 15.6 81 81 Calm 30.17 1022 10 16.0934 0 0
1:56 am 01:56 Clear 64 17.8 59 15 84 84 Calm 30.17 1022 10 16.0934 0 0
2:56 am 02:56 Clear 62 16.7 59 15 90 90 NE 3 6 30.16 1021 10 16.0934 0 0
3:56 am 03:56 Clear 61 16.1 58 14.4 90 90 Calm 30.16 1022 10 16.0934 0 0
4:56 am 04:56 Clear 61 16.1 59 15 93 93 ENE 3 6 30.16 1022 10 16.0934 0 0
5:56 am 05:56 Clear 61 16.1 58 14.4 90 90 E 3 6 30.17 1022 10 16.0934 0 0
6:56 am 06:56 Sunny 60 15.6 57 13.9 90 90 Calm 30.18 1022 10 16.0934 0 0
7:56 am 07:56 Sunny 64 17.8 61 16.1 90 90 Calm 30.19 1023 10 16.0934 0 0
8:56 am 08:56 Sunny 68 20 62 16.7 81 81 E 3 6 30.21 1023 10 16.0934 0 0
9:56 am 09:56 Sunny 73 22.8 61 16.1 66 66 E 6 9 30.21 1023 10 16.0934 0 0
10:56 am 10:56 Sunny 77 25 62 16.7 60 60 undefined N/A 30.22 1023 10 16.0934 0 0
11:56 am 11:56 Sunny 79 26.1 62 16.7 56 56 SE 5 7 30.21 1023 10 16.0934 0 0
12:56 pm 12:56 Sunny 80 26.7 62 16.7 54 54 ESE 7 11 30.2 1023 10 16.0934 0 0
1:56 pm 13:56 Sunny 81 27.2 62 16.7 53 53 VRB 3 6 30.19 1022 10 16.0934 0 0
2:56 pm 14:56 Mostly Sunny 82 27.8 62 16.7 51 51 VRB 3 6 30.18 1022 10 16.0934 0 0
3:56 pm 15:56 Partly Cloudy 80 26.7 61 16.1 52 52 NE 6 9 30.17 1022 10 16.0934 0 0
4:56 pm 16:56 Partly Cloudy 79 26.1 63 17.2 58 58 ENE 5 7 30.16 1021 10 16.0934 0 0
5:56 pm 17:56 Sunny 79 26.1 61 16.1 54 54 Calm 30.14 1021 10 16.0934 0 0
6:56 pm 18:56 Sunny 81 27.2 62 16.7 53 53 SSE 3 6 30.14 1021 10 16.0934 0 0
7:56 pm 19:56 Sunny 79 26.1 63 17.2 58 58 Calm 30.13 1020 10 16.0934 0 0
8:56 pm 20:56 Clear 73 22.8 65 18.3 76 76 Calm 30.13 1020 10 16.0934 0 0
9:56 pm 21:56 Clear 68 20 63 17.2 84 84 Calm 30.14 1021 10 16.0934 0 0
10:56 pm 22:56 Clear 67 19.4 63 17.2 87 87 Calm 30.15 1021 10 16.0934 0 0
11:56 pm 23:56 Clear 65 18.3 62 16.7 90 90 Calm 30.14 1021 10 16.0934 0 0

Powered by AerisWeather